FENGYUN 1C DEB, 30673

Orbit data source: Space-Track

FENGYUN 1C DEB, 30673 is space debris in SSO originally from a launch on Mon, 10 May 1999 UTC launched from the Taiyaun Space Center, China (TSC). Fengyun 1C debris stems from the Chinese weather satellite Fengyun-1C, which was intentionally destroyed by a Chinese anti-satellite missile in 2007. This event dramatically increased the amount of space debris, with thousands of trackable fragments posing hazards to satellites and human spaceflight. The Fengyun 1C debris cloud has become a focal point in discussions about space sustainability and the need for international regulations to prevent the creation of new debris.

Loading next visibility...
Identifier
30673, 1999-025AQF
Orbit
SSO
Country
Flag of CNCN / PRC
Related business
Manufacturer
Unknown
Mission
Spacecraft
Bus & Motor
Unknown
Mass
Unknown
Launch date (UTC)
1999-05-10 (27 years ago)
Launch vehicle
Unknown
Launch site
Taiyaun Space Center, China (TSC)
Object type
Payload
Rocket body
Debris
Shape & HBR
Unknown shape, 0.1 m
Radar Cross Section
Small (<0.1 m²)

Expand to show TLE details & history
Last TLE update: 6 hours ago

TLE from 6 hours ago
0 FENGYUN 1C DEB
1 30673U 99025AQF 26062.41679802  .00000055  00000-0  62445-4 0  9992
2 30673  98.9056 114.9664 0050524 278.6345 203.6181 14.03506067976634
Epoch: 2026-03-03T10:00Z
TLE epoch observation values (Epoch: 2026-03-03T10:00:11.348Z)
Latitude
56.98829°
Longitude
-2.39508°
Altitude
924.827 km
Speed
7.378 km/s
True Right ascension
20h 35m 23s
True Declination
56° 50' 04"
Sunlit
Object was in daylight at epoch
Visualization orbit readout
Latitude
Unknown
Longitude
Unknown
Altitude
Unknown
Speed
Unknown
Apparent Right ascension
Unknown
Apparent Declination
Unknown
Sunlit
N/A
Visualization observer readout
Local Sidereal Time
20:03:22
Azimuth
Unknown
Elevation
Unknown
Doppler factor
Unknown
Orbital elements
Apogee altitude
915.535 km
Perigee altitude
842.204 km
Semi-major axis
7,257.007 km
Eccentricity
0.00505
Inclination
98.9056°
RAAN
114.9664°
Arg. of periapsis
278.6345°
True anomaly
203.38748°
Mean anomaly
203.6181°
Eccentric anomaly
203.50266°
Mean motion
3.51081 °/min
Orbital period
102.54 mins
BSTAR
0.000062445
Loading maneuver chart data...
Computing Atmospheric mass density...

Documentation

Showing up to 5 results
|